Weather in Limanowa

Poland     49°42′53″N   20°25′16″E
temp.,
°C
wind,
m/s
gust,
m/s
humid.,
%
clouds,
%
prec.,
mm/h
press.,
hPa
HPBL,
m
21 june, mon
mon2123:00+17se22940 0.0 101215
02:00+16s22950 0.0 101116
05:00+15sse22930 0.0 101019
08:00+22se22690 0.0 1009313
11:00+26ese23503 0.0 10091091
14:00+29ne334321 0.0 10081811
17:00+27ene335554 0.1 1008720
20:00+23sse22800 0.1 100730
22 june, tue
tue2223:00+19s228371 0.0 100929
02:00+17ssw2288100 0.3 100918
05:00+16s2292100 0.6 100923
08:00+22s127867 0.6 1009189
11:00+28e125219 0.0 10091045
14:00+30nne334523 0.0 10092147
17:00+20w2396100 16.8 101083
20:00+19ssw2191100 29.5 101121
23 june, wed
wed2323:00+18wsw1192100 0.0 101211
02:00+17w119673 0.6 101317
05:00+17wsw119731 0.8 101313
08:00+19nw2592100 0.9 1015447
11:00+21nw348091 0.0 1016695
14:00+23nw337596 0.2 1017856
17:00+22nw338079 0.1 1017664
20:00+20nw139179 0.2 1018151
24 june, thu
thu2423:00+19w229290 0.0 101858
02:00+17w009614 0.0 101811
05:00+17s11970 0.0 101811
08:00+22se12780 0.0 1017367
11:00+27ese22590 0.0 1016882
14:00+30ene344858 0.0 10141578
17:00+29e455955 0.4 1013900
20:00+25s2278100 0.6 101126
25 june, fri
fri2523:00+18nnw1399100 0.1 1013169
02:00+18s2388100 0.4 101172
05:00+18sw24903 0.1 101198
08:00+22nnw227823 0.1 1012513
11:00+23nw356713 0.4 10141036
14:00+25nnw46499 0.5 10141635
17:00+22nnw566218 0.1 1015915
20:00+18nw11830 0.1 101631